W4GAP Weather Reports


Display with metric or nautical units.
time (UTC)temp
F
wind
direction
speed
MPH
gust
MPH
rain 1hr
in
rain 24hr
in
rain mn
in
humidity
%
barometer
mb
20260504151109 67 298 0.0 0.0 0.00 0.00 0.00 48 1015.2
20260504150607 66 303 1.0 1.0 0.00 0.00 0.00 47 1015.2
20260504150104 66 313 1.0 2.0 0.00 0.00 0.00 48 1015.0
20260504141032 63 302 1.0 1.0 0.00 0.00 0.00 57 1015.2
20260504140529 62 295 0.0 1.0 0.00 0.00 0.00 58 1015.3
20260504130453 56 302 0.0 0.0 0.00 0.00 0.00 70 1015.5
20260504110340 46 302 0.0 0.0 0.00 0.00 0.00 90 1015.0
20260504100258 46 302 0.0 0.0 0.00 0.00 0.00 88 1014.7
20260504081651 49 302 0.0 0.0 0.00 0.00 0.00 81 1014.5
20260504081147 49 302 0.0 0.0 0.00 0.00 0.00 81 1014.4
20260504080644 49 302 0.0 0.0 0.00 0.00 0.00 81 1014.7
20260504080140 49 302 0.0 0.0 0.00 0.00 0.00 81 1014.5
20260504070108 51 304 0.0 0.0 0.00 0.00 0.00 74 1015.1
20260504050456 55 296 0.0 0.0 0.00 0.00 0.00 63 1015.2
20260504045954 55 295 0.0 0.0 0.00 0.00 0.00 64 1015.2
20260504045449 55 296 0.0 0.0 0.00 0.00 0.00 62 1015.1
20260504044946 55 295 0.0 0.0 0.00 0.00 0.00 63 1015.1
20260504044443 55 295 0.0 0.0 0.00 0.00 0.00 61 1015.1
20260504043941 55 295 0.0 0.0 0.00 0.00 0.00 63 1015.2
20260504043437 55 295 0.0 0.0 0.00 0.00 0.00 64 1015.3
20260504042935 55 295 0.0 0.0 0.00 0.00 0.00 64 1015.3
20260504042431 55 296 0.0 0.0 0.00 0.00 0.00 63 1015.3
20260504041928 55 296 0.0 0.0 0.00 0.00 0.00 61 1015.3
20260504041424 55 296 0.0 0.0 0.00 0.00 0.00 62 1015.3
20260504040920 55 296 0.0 0.0 0.00 0.00 0.00 62 1015.4
20260504040418 55 296 0.0 0.0 0.00 0.00 0.00 62 1015.1
20260504035914 55 296 0.0 0.0 0.00 0.00 0.00 67 1015.5
20260504035412 55 296 0.0 0.0 0.00 0.00 0.00 65 1015.4
20260504034908 55 295 0.0 0.0 0.00 0.00 0.00 66 1015.4
20260504034406 55 295 0.0 0.0 0.00 0.00 0.00 66 1015.4
20260504033903 55 295 0.0 0.0 0.00 0.00 0.00 65 1015.3
20260504033401 55 295 0.0 0.0 0.00 0.00 0.00 65 1015.5
20260504032857 55 295 0.0 0.0 0.00 0.00 0.00 65 1015.5
20260504032354 55 295 0.0 0.0 0.00 0.00 0.00 66 1015.4
20260504031850 55 295 0.0 0.0 0.00 0.00 0.00 65 1015.4
20260504031348 55 295 0.0 0.0 0.00 0.00 0.00 64 1015.6
20260504030844 55 296 0.0 0.0 0.00 0.00 0.00 67 1015.4
20260504030342 56 296 0.0 0.0 0.00 0.00 0.00 65 1015.6
20260504025837 56 296 0.0 0.0 0.00 0.00 0.00 64 1015.5
20260504025335 56 296 0.0 0.0 0.00 0.00 0.00 63 1015.4
20260504024831 56 296 0.0 0.0 0.00 0.00 0.00 62 1015.3
20260504024328 56 296 0.0 0.0 0.00 0.00 0.00 64 1015.4
20260504023824 56 296 0.0 0.0 0.00 0.00 0.00 65 1015.2
20260504023321 56 296 0.0 0.0 0.00 0.00 0.00 63 1015.2
20260504022817 56 296 0.0 0.0 0.00 0.00 0.00 62 1015.1
20260504022314 57 296 0.0 0.0 0.00 0.00 0.00 61 1015.4
20260504021810 57 295 0.0 0.0 0.00 0.00 0.00 61 1015.1
20260504021308 57 295 0.0 0.0 0.00 0.00 0.00 60 1015.1
20260504020805 57 295 0.0 0.0 0.00 0.00 0.00 59 1015.0
20260504020302 57 295 0.0 0.0 0.00 0.00 0.00 59 1015.1
20260504015757 57 295 0.0 0.0 0.00 0.00 0.00 58 1014.8
20260504015254 57 295 0.0 0.0 0.00 0.00 0.00 58 1015.0
20260504014750 58 295 0.0 0.0 0.00 0.00 0.00 58 1014.8
20260504014246 58 294 0.0 0.0 0.00 0.00 0.00 58 1014.7
20260504013744 58 297 0.0 0.0 0.00 0.00 0.00 59 1014.4
20260504013242 58 297 0.0 0.0 0.00 0.00 0.00 56 1014.6
20260504012738 59 297 0.0 0.0 0.00 0.00 0.00 55 1014.5
20260504012236 59 297 0.0 0.0 0.00 0.00 0.00 55 1014.5
20260504011732 59 297 0.0 0.0 0.00 0.00 0.00 55 1014.4
20260504011229 59 297 0.0 0.0 0.00 0.00 0.00 54 1014.5
20260504010725 60 297 0.0 0.0 0.00 0.00 0.00 53 1014.4
20260504010221 60 297 0.0 0.0 0.00 0.00 0.00 54 1014.5
20260504005718 60 297 0.0 0.0 0.00 0.00 0.00 53 1014.4
20260504005215 61 297 0.0 0.0 0.00 0.00 0.00 52 1014.4
20260504004713 61 297 0.0 0.0 0.00 0.00 0.00 51 1014.3
20260504004210 61 297 0.0 0.0 0.00 0.00 0.00 50 1014.1
20260504003706 62 297 0.0 0.0 0.00 0.00 0.00 49 1014.2
20260504003203 62 297 0.0 0.0 0.00 0.00 0.00 47 1014.4
20260504002700 62 296 0.0 0.0 0.00 0.00 0.00 47 1014.0
20260504002157 63 300 0.0 0.0 0.00 0.00 0.00 46 1014.1
20260504001655 63 300 0.0 0.0 0.00 0.00 0.00 45 1014.1
20260504001151 63 302 0.0 0.0 0.00 0.00 0.00 46 1014.0
20260504000648 64 300 0.0 0.0 0.00 0.00 0.00 44 1013.8
20260504000145 64 301 0.0 0.0 0.00 0.00 0.00 45 1013.9
20260503235643 64 297 0.0 0.0 0.00 0.00 0.00 45 1014.1
20260503235140 65 297 0.0 0.0 0.00 0.00 0.00 43 1013.9
20260503234638 65 296 0.0 0.0 0.00 0.00 0.00 42 1013.7
20260503234136 65 304 0.0 0.0 0.00 0.00 0.00 43 1013.7
20260503233632 65 305 0.0 1.0 0.00 0.00 0.00 43 1013.8
20260503233128 66 298 0.0 0.0 0.00 0.00 0.00 42 1013.9
20260503232625 66 300 0.0 0.0 0.00 0.00 0.00 42 1013.9
20260503232123 66 304 0.0 2.0 0.00 0.00 0.00 42 1013.8
20260503231620 66 305 0.0 0.0 0.00 0.00 0.00 42 1014.2
20260503231117 66 303 0.0 0.0 0.00 0.00 0.00 42 1014.0
20260503230614 66 302 0.0 0.0 0.00 0.00 0.00 40 1014.0
20260503230111 66 304 0.0 1.0 0.00 0.00 0.00 39 1013.9
20260503225609 67 301 1.0 2.0 0.00 0.00 0.00 39 1014.1
20260503225108 67 308 0.0 0.0 0.00 0.00 0.00 41 1013.9
20260503224606 67 305 0.0 0.0 0.00 0.00 0.00 44 1013.9
20260503224104 67 300 0.0 0.0 0.00 0.00 0.00 42 1014.3
20260503223601 67 305 1.0 3.0 0.00 0.00 0.00 41 1014.1
20260503223056 67 311 0.0 2.0 0.00 0.00 0.00 41 1014.2
20260503222555 67 298 0.0 2.0 0.00 0.00 0.00 40 1014.0
20260503222052 67 305 0.0 1.0 0.00 0.00 0.00 39 1014.1
20260503221550 67 309 0.0 3.0 0.00 0.00 0.00 39 1014.0
20260503221048 67 324 3.0 3.0 0.00 0.00 0.00 40 1013.9
20260503220543 67 296 0.0 1.0 0.00 0.00 0.00 40 1014.0
20260503220041 67 318 0.0 1.0 0.00 0.00 0.00 39 1014.1
20260503215538 67 314 2.0 2.0 0.00 0.00 0.00 38 1014.2
20260503215035 67 304 1.0 2.0 0.00 0.00 0.00 36 1014.0
20260503214533 67 311 2.0 3.0 0.00 0.00 0.00 39 1014.1
20260503214029 68 312 3.0 3.0 0.00 0.00 0.00 37 1014.1
20260503213528 68 309 2.0 3.0 0.00 0.00 0.00 37 1014.1
20260503213024 68 287 1.0 2.0 0.00 0.00 0.00 37 1014.3
20260503212522 68 301 0.0 1.0 0.00 0.00 0.00 33 1014.3
20260503212019 68 314 1.0 2.0 0.00 0.00 0.00 36 1014.4
20260503211516 68 302 0.0 1.0 0.00 0.00 0.00 39 1014.3
20260503211011 68 300 1.0 1.0 0.00 0.00 0.00 38 1014.3
20260503210508 69 310 1.0 2.0 0.00 0.00 0.00 39 1014.5
20260503210004 68 299 0.0 0.0 0.00 0.00 0.00 40 1014.3
20260503205500 68 304 0.0 3.0 0.00 0.00 0.00 40 1014.6
20260503204956 68 307 2.0 2.0 0.00 0.00 0.00 40 1014.6
20260503204454 68 304 1.0 2.0 0.00 0.00 0.00 39 1014.5
20260503203950 69 306 0.0 0.0 0.00 0.00 0.00 40 1014.6
20260503203448 69 290 1.0 1.0 0.00 0.00 0.00 38 1014.6
20260503202944 68 331 2.0 2.0 0.00 0.00 0.00 36 1014.8
20260503202443 68 305 0.0 0.0 0.00 0.00 0.00 36 1014.9
20260503201941 68 306 0.0 0.0 0.00 0.00 0.00 38 1014.9
20260503201438 68 312 0.0 2.0 0.00 0.00 0.00 37 1015.2
20260503200936 68 309 0.0 2.0 0.00 0.00 0.00 37 1014.9
20260503200432 68 298 0.0 1.0 0.00 0.00 0.00 38 1015.1
20260503195928 68 333 1.0 2.0 0.00 0.00 0.00 38 1015.4
20260503195426 69 335 3.0 3.0 0.00 0.00 0.00 37 1015.5
20260503194922 69 297 0.0 2.0 0.00 0.00 0.00 37 1015.5
20260503194419 68 298 1.0 1.0 0.00 0.00 0.00 40 1015.4
20260503193915 69 316 0.0 1.0 0.00 0.00 0.00 37 1015.4
20260503193410 68 299 1.0 6.0 0.00 0.00 0.00 38 1015.6
20260503192906 67 304 0.0 1.0 0.00 0.00 0.00 39 1015.8
20260503192403 68 283 1.0 3.0 0.00 0.00 0.00 37 1015.8
20260503191859 69 303 0.0 2.0 0.00 0.00 0.00 37 1015.8
20260503191356 69 311 0.0 3.0 0.00 0.00 0.00 36 1016.0
20260503190852 69 308 0.0 2.0 0.00 0.00 0.00 37 1016.0
20260503190350 69 308 2.0 3.0 0.00 0.00 0.00 36 1016.1
20260503185846 68 282 2.0 2.0 0.00 0.00 0.00 39 1016.2
20260503185342 69 297 0.0 2.0 0.00 0.00 0.00 38 1016.3
20260503184837 69 315 1.0 2.0 0.00 0.00 0.00 40 1016.2
20260503184333 68 334 3.0 3.0 0.00 0.00 0.00 39 1016.2
20260503183829 69 314 0.0 0.0 0.00 0.00 0.00 41 1016.3
20260503183326 68 305 1.0 2.0 0.00 0.00 0.00 40 1016.6
20260503182824 69 288 3.0 3.0 0.00 0.00 0.00 36 1016.4
20260503182323 69 296 0.0 2.0 0.00 0.00 0.00 38 1016.7
20260503181820 68 299 0.0 1.0 0.00 0.00 0.00 36 1016.6
20260503181317 68 311 1.0 3.0 0.00 0.00 0.00 36 1016.5
20260503180813 68 309 0.0 2.0 0.00 0.00 0.00 39 1016.6
20260503180311 67 312 1.0 3.0 0.00 0.00 0.00 40 1016.5
20260503175807 66 313 0.0 2.0 0.00 0.00 0.00 41 1016.4
20260503175306 66 330 1.0 2.0 0.00 0.00 0.00 40 1016.6
20260503174801 67 296 1.0 2.0 0.00 0.00 0.00 41 1016.9
20260503174259 67 302 0.0 1.0 0.00 0.00 0.00 42 1016.6
20260503173754 66 307 0.0 0.0 0.00 0.00 0.00 41 1017.0
20260503173250 66 309 1.0 2.0 0.00 0.00 0.00 43 1016.7
20260503172747 66 307 1.0 1.0 0.00 0.00 0.00 41 1017.1
20260503172244 67 334 0.0 2.0 0.00 0.00 0.00 40 1016.9
20260503171741 66 302 0.0 1.0 0.00 0.00 0.00 40 1016.9
20260503171238 67 318 1.0 2.0 0.00 0.00 0.00 41 1017.0
20260503170735 67 302 0.0 3.0 0.00 0.00 0.00 40 1017.3
20260503170232 67 279 1.0 2.0 0.00 0.00 0.00 39 1017.1
20260503160153 62 330 1.0 2.0 0.00 0.00 0.00 47 1017.8